Weather History for KMCF - December, 2012

Change the Weather History Date:

Sunday, December 9, 2012

  Actual Average Record
Temperature  
Mean Temperature 71 °F -  
Max Temperature 81 °F 72 °F 84 °F (1998)
Min Temperature 61 °F 55 °F 41 °F (2010)
Cooling Degree Days 6    
Growing Degree Days 21 (Base 50)    
Moisture  
Dew Point 66 °F    
Average Humidity 98    
Maximum Humidity 100    
Minimum Humidity 73    
Precipitation  
Precipitation 0.00 in - - ()
Sea Level Pressure  
Sea Level Pressure 30.06 in    
Wind  
Wind Speed 1 mph (NW)    
Max Wind Speed 7 mph    
Max Gust Speed -    
Visibility 2 miles    
Events Fog    
Averages and records for this station are not official NWS values.
T = Trace of Precipitation, MM = Missing Value Source: NWS Daily Summary

Daily Weather History Graph

Daily Weather History Graph

Search for Another Location

Airport or City:

Trip Planner

Search our weather history database for the weather conditions in past years. The results will help you decide how hot, cold, wet, or windy it might be!

Date:

Astronomy

Dec. 09, 2012 Rise Set
Actual Time 7:09 AM EST 5:35 PM EST
Civil Twilight 6:44 AM EST 6:01 PM EST
Nautical Twilight 6:15 AM EST 6:30 PM EST
Astronomical Twilight 5:46 AM EST 6:58 PM EST
Moon 2:57 AM EST (12/9) 2:28 PM EST (12/9)
Length of Visible Light 11h 16m
Length of Day
10h 25m
Waning Crescent, 19% of the Moon is Illuminated
Dec 9
Waning Crescent
Dec 13
New
Dec 20
First Quarter
Dec 28
Full
Jan 4
Last Quarter

Hourly Weather History & Observations

Time (EST) Temp. Heat Index Dew Point Humidity Pressure Visibility Wind Dir Wind Speed Gust Speed Precip Events Conditions
12:55 AM 67.3 °F - 67.3 °F 100% 30.04 in 2.0 mi Calm Calm - N/A   Partly Cloudy
12:56 AM 68.0 °F - 68.0 °F 100% 30.04 in 1.8 mi Calm Calm - N/A   Clear
12:58 AM 66.2 °F - 66.2 °F 100% 30.04 in 1.2 mi Calm Calm - N/A   Clear
12:59 AM 66.2 °F - 66.2 °F 100% 30.04 in 1.2 mi Calm Calm - N/A   Clear
1:00 AM 66.2 °F - 66.2 °F 100% 30.04 in 1.0 mi Calm Calm - N/A   Clear
1:01 AM 66.2 °F - 66.2 °F 100% 30.04 in 1.0 mi Calm Calm - N/A   Clear
1:03 AM 66.2 °F - 66.2 °F 100% 30.04 in 1.2 mi Calm Calm - N/A   Partly Cloudy
1:05 AM 66.2 °F - 66.2 °F 100% 30.04 in 1.5 mi Calm Calm - N/A   Partly Cloudy
1:06 AM 66.2 °F - 66.2 °F 100% 30.04 in 1.8 mi Calm Calm - N/A   Partly Cloudy
1:07 AM 66.2 °F - 66.2 °F 100% 30.04 in 2.0 mi Calm Calm - N/A   Scattered Clouds
1:09 AM 66.2 °F - 66.2 °F 100% 30.04 in 3.0 mi Calm Calm - N/A   Scattered Clouds
1:13 AM 66.2 °F - 66.2 °F 100% 30.04 in 4.0 mi Calm Calm - N/A   Mostly Cloudy
1:16 AM 66.2 °F - 66.2 °F 100% 30.04 in 3.0 mi Calm Calm - N/A   Mostly Cloudy
1:18 AM 66.2 °F - 66.2 °F 100% 30.04 in 1.8 mi Calm Calm - N/A   Mostly Cloudy
1:21 AM 66.2 °F - 66.2 °F 100% 30.04 in 1.5 mi Calm Calm - N/A   Mostly Cloudy
1:23 AM 66.2 °F - 66.2 °F 100% 30.04 in 1.5 mi Calm Calm - N/A   Mostly Cloudy
1:28 AM 66.2 °F - 66.2 °F 100% 30.04 in 2.0 mi Calm Calm - N/A   Mostly Cloudy
1:31 AM 66.2 °F - 66.2 °F 100% 30.04 in 2.5 mi Calm Calm - N/A   Mostly Cloudy
1:34 AM 66.2 °F - 66.2 °F 100% 30.04 in 2.0 mi Calm Calm - N/A   Mostly Cloudy
1:39 AM 66.2 °F - 66.2 °F 100% 30.04 in 1.8 mi Calm Calm - N/A   Mostly Cloudy
1:40 AM 66.2 °F - 66.2 °F 100% 30.04 in 1.2 mi Calm Calm - N/A   Mostly Cloudy
1:41 AM 66.2 °F - 66.2 °F 100% 30.04 in 1.0 mi Calm Calm - N/A   Mist
1:42 AM 66.2 °F - 66.2 °F 100% 30.04 in 0.8 mi Calm Calm - N/A   Mist
1:44 AM 66.2 °F - 66.2 °F 100% 30.04 in 0.5 mi Calm Calm - N/A Fog Fog
1:47 AM 66.2 °F - 66.2 °F 100% 30.04 in 0.5 mi Calm Calm - N/A Fog Fog
1:48 AM 66.2 °F - 66.2 °F 100% 30.04 in 0.2 mi Calm Calm - N/A Fog Fog
1:50 AM 66.2 °F - 66.2 °F 100% 30.04 in 0.5 mi Calm Calm - N/A Fog Fog
1:55 AM 65.8 °F - 65.8 °F 100% 30.04 in 0.5 mi Calm Calm - N/A Fog Fog
2:00 AM 66.2 °F - 66.2 °F 100% 30.04 in 0.2 mi Calm Calm - N/A Fog Fog
2:02 AM 66.2 °F - 66.2 °F 100% 30.04 in 0.5 mi Calm Calm - N/A Fog Fog
2:14 AM 64.4 °F - 64.4 °F 100% 30.04 in 0.2 mi Calm Calm - N/A Fog Fog
2:26 AM 64.4 °F - 64.4 °F 100% 30.03 in 0.2 mi Calm Calm - N/A Fog Fog
2:36 AM 64.4 °F - 64.4 °F 100% 30.03 in 0.2 mi Calm Calm - N/A Fog Fog
2:55 AM 64.0 °F - 64.0 °F 100% 30.03 in 0.2 mi Calm Calm - N/A Fog Fog
3:55 AM 62.2 °F - 62.2 °F 100% 30.03 in 0.2 mi Calm Calm - N/A Fog Fog
4:09 AM 62.6 °F - 62.6 °F 100% 30.03 in 0.2 mi Calm Calm - N/A Fog Fog
4:32 AM 62.6 °F - 62.6 °F 100% 30.03 in 0.2 mi Calm Calm - N/A Fog Fog
4:55 AM 62.4 °F - 62.4 °F 100% 30.03 in 0.2 mi Calm Calm - N/A Fog Fog
4:56 AM 62.6 °F - 62.6 °F 100% 30.03 in 0.2 mi Calm Calm - N/A Fog Fog
4:59 AM 62.6 °F - 62.6 °F 100% 30.03 in 0.2 mi Calm Calm - N/A Fog Fog
5:03 AM 62.6 °F - 62.6 °F 100% 30.03 in 0.5 mi Calm Calm - N/A Fog Fog
5:05 AM 62.6 °F - 62.6 °F 100% 30.03 in 0.5 mi Calm Calm - N/A Fog Fog
5:13 AM 62.6 °F - 62.6 °F 100% 30.03 in 0.5 mi Calm Calm - N/A Fog Fog
5:14 AM 62.6 °F - 62.6 °F 100% 30.03 in 0.2 mi ESE 3.5 mph - N/A Fog Fog
5:21 AM 62.6 °F - 62.6 °F 100% 30.04 in 0.2 mi Calm Calm - N/A Fog Fog
5:29 AM 62.6 °F - 62.6 °F 100% 30.04 in 0.2 mi Calm Calm - N/A Fog Fog
5:33 AM 64.4 °F - 64.4 °F 100% 30.04 in 0.2 mi Calm Calm - N/A Fog Fog
5:47 AM 64.4 °F - 64.4 °F 100% 30.04 in 0.2 mi Calm Calm - N/A Fog Fog
5:55 AM 64.2 °F - 64.2 °F 100% 30.04 in 0.2 mi Calm Calm - N/A Fog Fog
6:10 AM 64.4 °F - 64.4 °F 100% 30.05 in 0.5 mi Calm Calm - N/A Fog Fog
6:24 AM 64.4 °F - 64.4 °F 100% 30.05 in 0.5 mi Calm Calm - N/A Fog Fog
6:26 AM 64.4 °F - 64.4 °F 100% 30.06 in 0.5 mi Calm Calm - N/A Fog Fog
6:30 AM 64.4 °F - 64.4 °F 100% 30.06 in 0.5 mi Calm Calm - N/A Fog Fog
6:32 AM 64.4 °F - 64.4 °F 100% 30.06 in 0.8 mi Calm Calm - N/A   Overcast
6:34 AM 64.4 °F - 64.4 °F 100% 30.06 in 0.8 mi Calm Calm - N/A   Overcast
6:43 AM 64.4 °F - 64.4 °F 100% 30.06 in 0.5 mi Calm Calm - N/A Fog Fog
6:44 AM 64.4 °F - 64.4 °F 100% 30.06 in 0.5 mi Calm Calm - N/A Fog Fog
6:48 AM 64.4 °F - 64.4 °F 100% 30.06 in 0.2 mi Calm Calm - N/A Fog Fog
6:55 AM 64.8 °F - 64.8 °F 100% 30.06 in 0.2 mi Calm Calm - N/A Fog Fog
7:55 AM 66.4 °F - 66.4 °F 100% 30.07 in 0.2 mi Calm Calm - N/A Fog Fog
8:48 AM 66.2 °F - 66.2 °F 100% 30.10 in 0.2 mi Calm Calm - N/A Fog Fog
8:50 AM 68.0 °F - 68.0 °F 100% 30.10 in 0.2 mi Calm Calm - N/A Fog Fog
8:51 AM 68.0 °F - 68.0 °F 100% 30.10 in 0.2 mi Calm Calm - N/A Fog Fog
8:52 AM 68.0 °F - 68.0 °F 100% 30.10 in 0.2 mi Calm Calm - N/A Fog Fog
8:54 AM 68.0 °F - 68.0 °F 100% 30.10 in 0.5 mi Calm Calm - N/A Fog Fog
8:55 AM 67.3 °F - 67.3 °F 100% 30.10 in 0.5 mi Calm Calm - N/A Fog Fog
9:02 AM 68.0 °F - 68.0 °F 100% 30.10 in 0.5 mi Calm Calm - N/A Fog Fog
9:04 AM 68.0 °F - 68.0 °F 100% 30.10 in 0.5 mi Calm Calm - N/A Fog Fog
9:07 AM 68.0 °F - 68.0 °F 100% 30.10 in 0.8 mi Calm Calm - N/A   Mist
9:09 AM 68.0 °F - 68.0 °F 100% 30.10 in 1.0 mi Calm Calm - N/A   Mist
9:10 AM 68.0 °F - 68.0 °F 100% 30.10 in 1.5 mi Calm Calm - N/A   Overcast
9:11 AM 68.0 °F - 68.0 °F 100% 30.10 in 2.5 mi Calm Calm - N/A   Overcast
9:12 AM 68.0 °F - 68.0 °F 100% 30.10 in 4.0 mi Calm Calm - N/A   Overcast
9:46 AM 69.8 °F - 69.8 °F 100% 30.11 in 2.5 mi Calm Calm - N/A   Overcast
9:49 AM 69.8 °F - 69.8 °F 100% 30.11 in 1.8 mi Calm Calm - N/A   Overcast
9:55 AM 69.3 °F - 69.3 °F 100% 30.11 in 1.8 mi Calm Calm - N/A   Overcast
9:57 AM 69.8 °F - 69.8 °F 100% 30.11 in 2.0 mi Calm Calm - N/A   Overcast
10:00 AM 69.8 °F - 69.8 °F 100% 30.11 in 3.0 mi Calm Calm - N/A   Overcast
10:06 AM 69.8 °F - 69.8 °F 100% 30.11 in 2.5 mi Calm Calm - N/A   Overcast
10:09 AM 69.8 °F - 69.8 °F 100% 30.11 in 1.8 mi Calm Calm - N/A   Overcast
10:18 AM 69.8 °F - 69.8 °F 100% 30.11 in 2.0 mi WNW 3.5 mph - N/A   Overcast
10:24 AM 69.8 °F - 69.8 °F 100% 30.11 in 3.0 mi Calm Calm - N/A   Overcast
10:51 AM 71.6 °F - 71.6 °F 100% 30.11 in 2.5 mi West 3.5 mph - N/A   Overcast
10:54 AM 71.6 °F - 71.6 °F 100% 30.11 in 1.8 mi WNW 4.6 mph - N/A   Overcast
10:55 AM 71.1 °F - 71.1 °F 100% 30.11 in 1.5 mi WNW 4.6 mph - N/A   Overcast
11:09 AM 71.6 °F - 71.6 °F 100% 30.11 in 2.0 mi West 3.5 mph - N/A   Overcast
11:13 AM 71.6 °F - 71.6 °F 100% 30.11 in 3.0 mi Calm Calm - N/A   Overcast
11:20 AM 71.6 °F - 71.6 °F 100% 30.11 in 10.0 mi West 3.5 mph - N/A   Overcast
11:21 AM 71.6 °F - 71.6 °F 100% 30.11 in 10.0 mi West 3.5 mph - N/A   Overcast
11:34 AM 73.4 °F - 73.4 °F 100% 30.10 in 4.0 mi West 5.8 mph - N/A   Scattered Clouds
11:40 AM 75.2 °F - 71.6 °F 89% 30.10 in 2.5 mi West 4.6 mph - N/A   Scattered Clouds
11:47 AM 75.2 °F - 71.6 °F 89% 30.10 in 1.8 mi West 4.6 mph - N/A   Scattered Clouds
11:54 AM 75.2 °F - 71.6 °F 89% 30.09 in 2.0 mi West 3.5 mph - N/A   Scattered Clouds
11:55 AM 74.5 °F - 71.4 °F 90% 30.09 in 2.0 mi West 3.5 mph - N/A   Scattered Clouds
11:58 AM 75.2 °F - 71.6 °F 89% 30.09 in 3.0 mi Variable 3.5 mph - N/A   Scattered Clouds
12:55 PM 81.1 °F 85.6 °F 72.3 °F 74% 30.06 in 10.0 mi West 3.5 mph - N/A   Clear
1:55 PM 78.8 °F - 70.5 °F 76% 30.04 in 10.0 mi West 4.6 mph - N/A   Clear
2:55 PM 80.1 °F 83.6 °F 71.1 °F 74% 30.04 in 10.0 mi Calm Calm - N/A   Clear
3:55 PM 79.3 °F - 70.2 °F 73% 30.03 in 10.0 mi Variable 3.5 mph - N/A   Clear
4:55 PM 77.2 °F - 68.9 °F 76% 30.03 in 10.0 mi NNW 3.5 mph - N/A   Clear
5:55 PM 71.6 °F - 68.4 °F 89% 30.04 in 10.0 mi NNW 4.6 mph - N/A   Clear
6:55 PM 69.1 °F - 68.2 °F 97% 30.05 in 10.0 mi North 5.8 mph - N/A   Clear
7:55 PM 67.8 °F - 67.5 °F 99% 30.05 in 10.0 mi North 6.9 mph - N/A   Clear
8:55 PM 66.0 °F - 65.8 °F 99% 30.06 in 10.0 mi Calm Calm - N/A   Clear
9:55 PM 63.1 °F - 62.8 °F 99% 30.05 in 9.0 mi Calm Calm - N/A   Clear
10:04 PM 62.6 °F - 62.6 °F 100% 30.05 in 4.0 mi Calm Calm - N/A   Clear
10:05 PM 62.6 °F - 62.6 °F 100% 30.05 in 4.0 mi Calm Calm - N/A   Clear
10:48 PM 62.6 °F - 60.8 °F 94% 30.05 in 8.0 mi Calm Calm - N/A   Clear
10:55 PM 61.7 °F - 61.5 °F 99% 30.05 in 6.0 mi Calm Calm - N/A   Clear
10:56 PM 62.6 °F - 60.8 °F 94% 30.05 in 6.0 mi Calm Calm - N/A   Clear
11:42 PM 62.6 °F - 62.6 °F 100% 30.05 in 4.0 mi North 3.5 mph - N/A   Scattered Clouds
11:43 PM 62.6 °F - 62.6 °F 100% 30.05 in 4.0 mi North 3.5 mph - N/A   Mostly Cloudy
11:48 PM 62.6 °F - 62.6 °F 100% 30.05 in 3.0 mi North 3.5 mph - N/A   Mostly Cloudy
11:52 PM 64.4 °F - 64.4 °F 100% 30.05 in 2.5 mi North 3.5 mph - N/A   Mostly Cloudy
11:55 PM 63.7 °F - 63.7 °F 100% 30.05 in 1.8 mi North 3.5 mph - N/A   Mostly Cloudy
11:56 PM 64.4 °F - 64.4 °F 100% 30.05 in 1.2 mi North 4.6 mph - N/A   Mostly Cloudy
11:57 PM 64.4 °F - 64.4 °F 100% 30.05 in 1.0 mi North 4.6 mph - N/A   Mist
11:59 PM 64.4 °F - 64.4 °F 100% 30.05 in 0.8 mi Calm Calm - N/A   Mist